sat.trackr.live / text

‹ back to catalog

STARLINK-31250

NORAD 58839 · 2024-017P

PAYLOAD ACTIVE UNKNOWN

§ Identity

Operator
Country
US
Launch date
2024-01-24
Launch site
AFWTR
Launch vehicle
Mass (kg)
RCS (m²)

Purposes: comms

External: N2YO · Heavens-Above · Gunter

§ Orbital elements

Epoch: 2026-05-24T20:15:29.015712Z

Period
93.85 min
Inclination
53.1605°
Eccentricity
0.0001061
Mean motion
15.34390894 rev/d
Perigee alt
462.0 km
Apogee alt
463.5 km
Semi-major
6,840.9 km
B*
1.8329e-5
RAAN
200.0906°
Arg perigee
76.6483°
Mean anomaly
283.4638°
Rev number
13,181

§ Raw data

STARLINK-312501 58839U 24017P   26144.84408583  .00000243  00000+0  18329-4 0  99992 58839  53.1605 200.0906 0001061  76.6483 283.4638 15.34390894131818

JSON: /api/v1/satellites/58839 · /tle

For live sub-satellite position, see the globe view (requires WebGL).

§ Visibility from observer

Set your observer location to see the next 7 days of passes ≥ 10°. The values pass through the URL so the page stays shareable.

No JS? Fill the form by hand. The geolocation button needs JavaScript.